[[{"header":{"parameterUnit":"m.s-1","parameterCategory":1,"la1":30.2991,"la2":30.254,"lo1":-89.0895,"lo2":-89.0444,"dy":0.0017,"dx":0.0017,"nx":28,"ny":28,"refTime":"2025-04-16T21:00:00:Z","depth":0,"parameterNumber":2,"parameterNumberName":"U-component_of_WINDS"},"data":[0,0,0,0,0,0,0,0,0,0,0,0,0,0,0,0,0,0,0,0,0,0,0,0,0,0,0,0,0,0,0,0,0,0,0,0,0,0,0,0,0,0,0,0,0,0,0,0,0,0,0,0,0,0,0,0,0,0,-2.1992,-2.1992,0,-2.1966,-2.1965,-2.1965,-2.1933,-2.1933,-2.1932,-2.1932,-2.1904,-2.1903,-2.1903,0,0,0,0,0,0,0,0,0,0,0,0,0,-2.2016,-2.2016,-2.1992,-2.1992,-2.1992,-2.1966,-2.1965,-2.1965,-2.1933,-2.1933,-2.1932,-2.1932,-2.1904,-2.1903,-2.1903,0,0,0,0,0,0,0,0,0,0,0,0,0,-2.1999,-2.2016,-2.1992,-2.1973,-2.1971,-2.1966,-2.1965,-2.1965,-2.1934,-2.1933,-2.1932,-2.1931,-2.1904,-2.1903,-2.1903,-2.1915,0,0,-2.1902,-2.1901,0,0,0,0,0,0,0,0,-2.2,-2.1998,-2.1976,-2.1974,-2.1972,-2.1952,-2.1963,-2.1948,-2.1934,-2.1948,-2.1932,-2.1931,-2.192,-2.1918,-2.1915,-2.1913,-2.1912,-2.1902,-2.1901,-2.1901,-2.1901,0,0,0,0,0,0,0,-2.2001,-2.1999,-2.1982,-2.1976,-2.1973,-2.1965,-2.1962,-2.196,-2.1938,-2.1946,-2.1944,-2.1941,-2.1919,-2.1916,-2.1914,-2.1912,-2.1902,-2.1901,-2.1901,-2.1901,-2.1919,-2.192,0,0,0,0,0,0,-2.2005,-2.2,-2.1983,-2.1981,-2.1985,-2.1966,-2.1962,-2.1959,-2.1938,-2.1934,-2.1942,-2.194,-2.1917,-2.1915,-2.1913,-2.1925,-2.1901,-2.1901,-2.19,-2.1919,-2.192,-2.192,0,0,0,0,0,0,-2.2006,-2.2004,-2.1984,-2.199,-2.1987,-2.1966,-2.1963,-2.1959,-2.1955,-2.1935,-2.1931,-2.1942,-2.1916,-2.1914,-2.1915,-2.1924,-2.19,-2.19,-2.1918,-2.1919,-2.192,-2.1951,0,0,0,0,0,0,-2.2007,-2.2005,-2.2009,-2.199,-2.1987,-2.1986,-2.1964,-2.1959,-2.1955,-2.1952,-2.1934,-2.1931,-2.1915,-2.1916,-2.1914,-2.1923,-2.19,-2.1917,-2.1918,-2.192,-2.1949,-2.1953,-2.1956,0,0,0,0,0,-2.2008,-2.2018,-2.2009,-2.2007,-2.1991,-2.1987,-2.1984,-2.1967,-2.1956,-2.196,-2.1947,-2.1931,-2.1924,-2.1916,-2.1914,-2.1923,-2.1916,-2.1918,-2.1919,-2.1947,-2.1952,-2.1956,0,0,0,0,0,0,-2.2037,-2.2015,-2.2005,-2.201,-2.2,-2.1981,-2.1986,-2.1972,-2.1966,-2.1963,-2.1941,-2.1938,-2.1941,-2.1932,-2.1924,-2.1934,-2.1918,-2.1919,-2.1939,-2.1944,-2.1947,-2.1949,-2.1899,0,0,0,0,0,-2.2045,-2.2043,-2.2023,-2.2029,-2.2025,-2.2007,-2.2004,-2.1991,-2.198,-2.1976,-2.1963,-2.1953,-2.1948,-2.1946,-2.194,-2.1948,-2.1944,-2.1953,-2.1957,-2.196,-2.1961,-2.1965,-2.1969,-2.1926,-2.1926,-2.1926,0,0,-2.2059,-2.2047,-2.2047,-2.2035,-2.2026,-2.2025,-2.2003,-2.2002,-2.2001,-2.1976,-2.1976,-2.1967,-2.1954,-2.1959,-2.196,-2.1951,-2.1972,-2.1962,-2.1965,-2.1964,-2.1967,-2.1971,-2.1975,-2.1927,-2.1927,-2.1927,0,0,-2.2084,-2.2075,-2.2079,-2.2071,-2.2059,-2.2046,-2.2047,-2.2031,-2.2023,-2.2024,-2.2005,-2.2003,-2.1996,-2.1988,-2.1983,-2.2007,-2.1992,-2.2006,-2.2025,-2.2029,-2.2032,-2.2035,-2.2043,-2.2047,-2.2007,-2.2008,-2.2008,0,-2.2104,-2.2101,-2.2083,-2.2083,-2.2079,-2.2057,-2.2061,-2.2054,-2.204,-2.2038,-2.2029,-2.2019,-2.2009,-2.2012,-2.2018,-2.2015,-2.2015,-2.2007,-2.2033,-2.2036,-2.2038,-2.2046,-2.2049,-2.2009,-2.2009,-2.2009,-2.2009,0,-2.2125,-2.2124,-2.2128,-2.2116,-2.2112,-2.2115,-2.2097,-2.2096,-2.2084,-2.2073,-2.2074,-2.2062,-2.2053,-2.2053,-2.2042,-2.2055,-2.205,-2.2037,-2.202,-2.2044,-2.2051,-2.2054,-2.2012,-2.2011,-2.2011,-2.201,0,0,-2.2167,-2.2146,-2.2148,-2.2142,-2.2128,-2.2126,-2.2128,-2.212,-2.2119,-2.2111,-2.2112,-2.2107,-2.2096,-2.209,-2.2078,-2.2081,-2.2101,-2.2068,-2.2068,-2.2074,-2.2115,-2.2124,-2.2127,-2.2092,-2.2093,-2.2093,-2.2116,0,-2.2189,-2.2191,-2.2175,-2.2181,-2.2179,-2.216,-2.2161,-2.2152,-2.2142,-2.214,-2.2129,-2.2125,-2.2111,-2.2107,-2.211,-2.2098,-2.2109,-2.2097,-2.2092,-2.2092,-2.2095,-2.2131,-2.214,-2.2162,-2.2118,-2.2119,-2.2119,0,-2.2215,-2.2209,-2.2214,-2.22,-2.2199,-2.22,-2.2193,-2.2191,-2.2181,-2.2173,-2.2168,-2.2154,-2.2155,-2.214,-2.2141,-2.2133,-2.213,-2.2125,-2.2125,-2.2123,-2.2106,-2.2129,-2.2168,-2.2171,-2.2123,-2.2123,-2.2123,0,-2.2244,-2.2238,-2.224,-2.2236,-2.2219,-2.2221,-2.2214,-2.2204,-2.2201,-2.2194,-2.2192,-2.2186,-2.2182,-2.2178,-2.2163,-2.2153,-2.2166,-2.2149,-2.2159,-2.216,-2.2162,-2.2161,-2.22,-2.2162,-2.2162,-2.2162,-2.2162,0,-2.227,-2.2274,-2.2253,-2.2255,-2.2259,-2.2242,-2.2246,-2.2238,-2.2229,-2.2228,-2.2211,-2.2211,-2.2192,-2.2189,-2.2178,-2.218,-2.2179,-2.2173,-2.217,-2.2174,-2.2175,-2.2171,-2.2169,-2.2162,-2.2162,-2.2162,-2.2162,0,-2.2303,-2.2289,-2.2291,-2.2275,-2.2272,-2.2276,-2.2262,-2.2263,-2.2253,-2.2253,-2.2252,-2.2235,-2.2232,-2.2217,-2.221,-2.2202,-2.2209,-2.2203,-2.2212,-2.221,-2.222,-2.2219,-2.2257,-2.2261,-2.2221,-2.2222,-2.2222,0,-2.232,-2.2323,-2.2309,-2.2307,-2.2301,-2.2299,-2.2296,-2.228,-2.2277,-2.2267,-2.2269,-2.2265,-2.226,-2.2256,-2.2244,-2.2238,-2.2232,-2.2246,-2.2231,-2.2235,-2.2231,-2.2231,-2.2231,-2.2248,-2.2249,-2.2249,-2.225,0,-2.2352,-2.2345,-2.2342,-2.2336,-2.2333,-2.2328,-2.2321,-2.2321,-2.2303,-2.2301,-2.2298,-2.2295,-2.2288,-2.2284,-2.2277,-2.227,-2.2257,-2.2255,-2.2256,-2.226,-2.2266,-2.2263,-2.222,-2.2253,-2.2253,-2.2253,-2.2253,-2.2252,-2.2377,-2.2379,-2.2369,-2.2366,-2.236,-2.2354,-2.2354,-2.2345,-2.2342,-2.2335,-2.2326,-2.2324,-2.2315,-2.2304,-2.2298,-2.2297,-2.2289,-2.2292,-2.2293,-2.2293,-2.2296,-2.2267,-2.2295,-2.2295,-2.2295,-2.2295,-2.2295,0,-2.2408,-2.2401,-2.2398,-2.239,-2.2388,-2.2376,-2.2369,-2.2367,-2.2366,-2.2359,-2.2355,-2.2352,-2.2348,-2.2336,-2.2331,-2.2332,-2.2326,-2.2331,-2.233,-2.2329,-2.2303,-2.2301,-2.2336,-2.2336,-2.2336,-2.2336,-2.2336,-2.2336,-2.2423,-2.2426,-2.2418,-2.2417,-2.241,-2.2408,-2.2405,-2.24,-2.2394,-2.2391,-2.2388,-2.2381,-2.2371,-2.2366,-2.2362,-2.2359,-2.2357,-2.2364,-2.2359,-2.2335,-2.2331,-2.2327,-2.2325,-2.2365,-2.2365,-2.2385,-2.2385,-2.2386]},{"header":{"parameterUnit":"m.s-1","parameterCategory":1,"la1":30.2991,"la2":30.254,"lo1":-89.0895,"lo2":-89.0444,"dy":0.0017,"dx":0.0017,"nx":28,"ny":28,"refTime":"2025-04-16T21:00:00:Z","depth":0,"parameterNumber":3,"parameterNumberName":"V-component_of_WINDS"},"data":[0,0,0,0,0,0,0,0,0,0,0,0,0,0,0,0,0,0,0,0,0,0,0,0,0,0,0,0,0,0,0,0,0,0,0,0,0,0,0,0,0,0,0,0,0,0,0,0,0,0,0,0,0,0,0,0,0,0,5.145,5.145,0,5.1426,5.1426,5.1426,5.1411,5.1411,5.1411,5.1411,5.1383,5.1382,5.1381,0,0,0,0,0,0,0,0,0,0,0,0,0,5.1482,5.1481,5.145,5.145,5.145,5.1426,5.1426,5.1426,5.1411,5.1411,5.1411,5.1411,5.1383,5.1382,5.1381,0,0,0,0,0,0,0,0,0,0,0,0,0,5.1464,5.1481,5.145,5.144,5.1439,5.1426,5.1426,5.1425,5.1411,5.1411,5.1411,5.1411,5.1383,5.1382,5.1381,5.1376,0,0,5.1378,5.1377,0,0,0,0,0,0,0,0,5.1465,5.1462,5.1442,5.1441,5.1439,5.1422,5.1426,5.1409,5.1411,5.1422,5.1411,5.1411,5.1395,5.1393,5.1389,5.1375,5.1373,5.1378,5.1377,5.1376,5.1376,0,0,0,0,0,0,0,5.1466,5.1463,5.1441,5.1441,5.144,5.1436,5.1433,5.1423,5.1409,5.1421,5.142,5.1417,5.1395,5.139,5.1388,5.1373,5.1378,5.1377,5.1376,5.1376,5.1355,5.1355,0,0,0,0,0,0,5.1469,5.1465,5.1441,5.144,5.1452,5.1435,5.1432,5.1427,5.1409,5.1406,5.1417,5.1417,5.1392,5.1389,5.1387,5.1381,5.1376,5.1375,5.1375,5.1355,5.1355,5.1355,0,0,0,0,0,0,5.147,5.1467,5.1442,5.1452,5.1448,5.1435,5.1429,5.1427,5.1422,5.1407,5.1404,5.1415,5.1392,5.1388,5.1379,5.138,5.1375,5.1374,5.1355,5.1355,5.1355,5.1368,0,0,0,0,0,0,5.1471,5.1468,5.1466,5.1452,5.1448,5.1436,5.1429,5.1426,5.1421,5.142,5.1404,5.1401,5.1391,5.1381,5.1378,5.1378,5.1373,5.1355,5.1355,5.1355,5.1367,5.1369,5.1369,0,0,0,0,0,5.1472,5.1469,5.1466,5.1463,5.1446,5.1436,5.1433,5.1423,5.1421,5.1419,5.1409,5.1402,5.138,5.138,5.1377,5.1376,5.1354,5.1355,5.1355,5.1367,5.1368,5.1369,0,0,0,0,0,0,5.1482,5.1467,5.1463,5.1456,5.1448,5.1434,5.1431,5.1425,5.1416,5.1415,5.1402,5.1398,5.1391,5.1382,5.1383,5.1371,5.1367,5.1366,5.1377,5.1378,5.1379,5.1381,5.1372,0,0,0,0,0,5.1484,5.1478,5.1465,5.146,5.1456,5.1444,5.1439,5.1433,5.1423,5.1418,5.1408,5.1398,5.1389,5.1383,5.1374,5.1367,5.1363,5.1365,5.1366,5.1367,5.1366,5.1363,5.1364,5.1356,5.1356,5.1356,0,0,5.1486,5.1478,5.1474,5.1462,5.1454,5.1448,5.1441,5.1434,5.1429,5.1417,5.1408,5.1401,5.1388,5.138,5.1376,5.1373,5.1368,5.1367,5.1368,5.1367,5.1363,5.1364,5.1365,5.1356,5.1356,5.1356,0,0,5.1488,5.1481,5.1477,5.147,5.1459,5.1452,5.1451,5.1438,5.1433,5.1425,5.1416,5.1409,5.1394,5.1386,5.138,5.1381,5.1374,5.1379,5.1384,5.1381,5.1381,5.1382,5.1383,5.1383,5.1378,5.1378,5.1378,0,5.1492,5.1483,5.1475,5.1469,5.1464,5.1455,5.145,5.1444,5.143,5.1427,5.1424,5.1406,5.1397,5.1388,5.1388,5.1383,5.1382,5.138,5.1382,5.1383,5.1383,5.1384,5.1384,5.1379,5.1379,5.1379,5.1379,0,5.149,5.1484,5.1481,5.1471,5.1465,5.146,5.145,5.1446,5.144,5.1433,5.1425,5.1414,5.1403,5.1401,5.1394,5.1391,5.139,5.1385,5.138,5.1384,5.1385,5.1385,5.138,5.138,5.138,5.1379,0,0,5.1495,5.1482,5.1481,5.1477,5.1465,5.146,5.1455,5.1446,5.1443,5.1434,5.1429,5.1418,5.1414,5.1407,5.14,5.1397,5.14,5.1393,5.1392,5.1395,5.1397,5.1401,5.1402,5.1396,5.1396,5.1396,5.1398,0,5.1496,5.1487,5.148,5.1473,5.1468,5.146,5.1456,5.1448,5.1442,5.1436,5.1428,5.1421,5.1416,5.1412,5.1409,5.14,5.14,5.14,5.1391,5.1391,5.1394,5.1402,5.1405,5.1408,5.1398,5.1399,5.1399,0,5.1494,5.1488,5.1482,5.1473,5.147,5.1467,5.1459,5.1453,5.1445,5.144,5.1434,5.1427,5.1421,5.1418,5.1409,5.1409,5.1405,5.1401,5.14,5.1399,5.1395,5.14,5.1409,5.1409,5.1399,5.1399,5.1399,0,5.15,5.149,5.1485,5.1482,5.1471,5.1469,5.1464,5.1455,5.1451,5.1444,5.1441,5.1433,5.1428,5.1422,5.1413,5.1411,5.1406,5.1401,5.1402,5.1402,5.14,5.1401,5.1408,5.1398,5.1398,5.1398,5.1398,0,5.1501,5.1497,5.1488,5.1485,5.1481,5.1473,5.1469,5.1463,5.1457,5.1452,5.1444,5.144,5.1429,5.1424,5.1416,5.1411,5.1409,5.1405,5.1403,5.1406,5.1406,5.1402,5.1402,5.1398,5.1398,5.1398,5.1398,0,5.1506,5.1499,5.1494,5.1485,5.1483,5.148,5.1472,5.1469,5.1463,5.1458,5.1456,5.1446,5.144,5.1431,5.1421,5.1416,5.1412,5.1409,5.1415,5.1414,5.1416,5.1416,5.1421,5.1421,5.1411,5.1411,5.1411,0,5.1507,5.1504,5.1496,5.1493,5.1489,5.1484,5.1481,5.1473,5.1469,5.1461,5.1459,5.1452,5.1446,5.1436,5.1428,5.142,5.1417,5.142,5.1416,5.1419,5.1418,5.1418,5.1418,5.142,5.142,5.1421,5.1421,0,5.1509,5.1507,5.1502,5.1497,5.1493,5.1488,5.1483,5.1481,5.1472,5.1469,5.1463,5.1459,5.145,5.1443,5.1435,5.143,5.1424,5.1422,5.1422,5.1424,5.1429,5.1427,5.1418,5.1422,5.1422,5.1422,5.1422,5.1422,5.1512,5.151,5.1505,5.15,5.1496,5.1492,5.1489,5.1484,5.1479,5.1472,5.1468,5.1463,5.1455,5.1445,5.144,5.1435,5.1432,5.1432,5.1432,5.1432,5.1433,5.143,5.1433,5.1433,5.1433,5.1433,5.1433,0,5.1515,5.1511,5.1507,5.1501,5.1498,5.1495,5.1489,5.1487,5.1482,5.1477,5.1472,5.1466,5.146,5.1453,5.1446,5.1444,5.1441,5.1443,5.1443,5.1442,5.1436,5.1437,5.1445,5.1445,5.1445,5.1445,5.1445,5.1445,5.1515,5.1512,5.1509,5.1504,5.1501,5.1497,5.1494,5.149,5.1486,5.148,5.1476,5.1472,5.1465,5.1459,5.1454,5.1451,5.1449,5.1452,5.1449,5.1443,5.1442,5.1441,5.1442,5.1451,5.1451,5.1455,5.1455,5.1455]}]]